RH
97 93 93 94 95 95 96 98 88 83 82 80 77 77 72 86 81 85 90 88 84 82 68 54 46 51 51 56 54 57 84 88 76 70 65 54 52 45 47 48 42 41 38 34 32
98 95 94 96 96 96 96 97 99 90 81 77 79 72 79 94 87 83 81 78 74 62 56 53 56 53 64 54 59 72 86 78 61 59 62 54 53 51 44 48 37 37 35 35 31
99 94 94 97 99 98 97 96 100 98 98 91 74 69 83 87 78 85 79 76 72 56 52 53 54 53 59 57 62 66 81 66 61 56 55 55 52 50 49 39 38 37 46 44 38
100 95 94 98 98 96 98 98 98 99 99 89 86 75 83 88 90 82 80 67 55 56 52 53 62 64 68 67 59 64 64 62 59 55 55 55 51 51 51 42 37 48 47 37 49
99 98 95 96 90 93 90 92 96 95 97 89 81 85 72 74 75 60 52 51 47 49 52 55 56 61 70 63 60 65 62 56 54 57 55 52 57 52 52 47 46 36 25 44 56
100 96 70 56 52 52 65 76 76 84 87 82 78 79 63 76 60 51 46 46 43 47 44 46 50 50 59 62 61 59 58 60 52 48 48 51 48 48 35 36 30 26 25 55 54
88 66 49 48 52 46 55 65 72 77 79 74 69 55 63 66 50 46 42 41 42 42 45 44 45 48 53 61 55 55 56 52 52 36 29 40 28 49 39 32 29 29 29 58 56
82 66 50 48 51 46 46 59 68 72 69 66 60 51 63 54 48 43 43 40 42 40 42 44 44 52 54 51 53 62 56 41 34 29 28 26 37 27 26 28 29 28 22 56 59
83 74 56 48 52 47 38 54 65 66 60 56 52 49 62 50 49 43 42 41 40 40 40 43 45 58 55 56 50 49 55 41 36 28 29 28 42 33 29 30 34 30 25 39 64
82 80 62 52 53 44 48 52 52 49 49 51 44 44 55 49 39 42 40 39 40 39 42 51 61 70 76 61 41 37 44 41 42 30 34 42 45 34 32 30 32 32 28 56 54
82 81 68 56 55 42 52 54 58 53 42 44 42 43 43 39 37 38 34 40 41 46 50 53 54 44 42 61 42 40 41 45 44 38 39 42 41 32 28 27 28 28 40 63 47
84 83 71 58 60 44 44 62 64 57 46 42 38 37 37 36 43 38 37 42 43 43 43 42 48 42 40 54 56 38 39 43 39 34 32 39 38 31 28 24 26 24 60 54 35
88 84 72 58 64 51 62 78 76 73 50 40 34 36 37 36 41 37 37 38 36 40 40 41 33 33 35 35 36 34 39 41 41 38 35 39 33 35 27 27 46 44 48 38 31
90 86 74 61 66 65 66 69 72 73 72 42 39 35 37 37 42 32 30 30 31 37 39 42 33 32 39 34 34 41 35 36 39 42 50 34 50 39 34 31 44 39 38 34 28
88 87 75 62 63 64 63 68 72 63 61 40 40 33 35 35 38 37 29 30 33 36 32 33 34 34 37 36 33 40 33 37 39 47 49 49 67 48 35 26 30 34 35 30 27
84 87 75 66 67 63 69 72 71 73 54 47 41 42 41 40 40 36 36 33 34 40 41 43 37 34 35 33 31 31 32 42 53 60 75 54 57 45 37 27 28 28 29 24 25
88 86 78 69 74 62 77 75 76 69 41 53 50 46 44 48 45 44 46 47 45 49 49 44 40 33 29 33 31 36 43 71 65 72 67 48 60 47 29 27 27 25 21 23 25
100 92 80 71 60 70 75 72 57 44 53 47 48 48 53 47 43 43 44 48 44 44 76 69 56 32 28 32 36 44 43 71 51 72 58 53 62 42 36 25 23 24 24 25 31
100 93 81 74 64 74 80 80 62 56 54 60 52 52 57 46 48 48 50 53 46 47 56 74 51 41 38 34 32 44 58 46 57 68 90 70 60 40 39 27 26 30 34 38 40
100 85 84 80 69 72 90 74 56 51 55 52 62 51 62 58 58 64 63 51 46 45 50 56 68 46 43 36 41 38 45 61 86 63 72 61 66 43 38 39 33 39 45 42 36
89 94 92 81 75 91 90 75 62 50 50 57 63 60 56 62 66 73 64 51 42 57 57 67 63 53 48 49 54 56 59 80 73 84 84 93 64 46 39 35 39 45 42 40 42
94 100 92 83 98 98 94 77 52 60 54 56 53 57 60 65 75 78 66 57 46 52 51 61 81 84 66 55 54 50 75 78 84 75 99 94 80 38 38 41 38 42 42 44 41
100 99 91 87 98 98 92 80 58 63 62 66 63 57 56 66 70 75 67 53 57 55 69 68 86 88 71 62 59 75 70 82 87 89 94 94 64 40 41 42 38 44 46 42 46
100 100 100 98 95 91 97 79 73 58 66 64 69 62 64 65 64 78 74 59 57 52 53 55 82 73 76 66 77 69 85 77 79 93 76 68 56 43 40 40 44 46 49 54 55
100 98 78 98 97 97 91 84 83 81 62 64 70 70 73 90 78 78 69 63 60 54 69 73 98 87 72 65 72 73 74 80 83 65 77 61 63 50 45 47 50 54 55 58 57
99 100 99 95 92 95 90 95 82 83 77 76 75 74 75 81 73 85 82 75 74 73 88 91 96 94 94 82 87 91 81 82 78 73 75 70 74 51 49 57 57 56 58 59 56
97 90 92 93 99 96 90 84 81 80 80 69 68 81 79 70 58 59 60 64 64 77 86 91 94 96 95 76 74 83 64 66 77 80 81 94 67 58 59 56 57 54 56 61 61
Wind_Speed
17 16 17 17 16 15 15 14 9 7 7 5 4 6 5 2 8 5 3 4 6 8 5 3 6 5 4 3 4 2 4 2 1 3 2 2 3 0 2 1 2 1 2 4 18
17 17 17 17 16 15 14 14 11 6 6 5 6 5 1 6 8 12 8 8 9 6 3 4 4 5 4 3 3 4 3 3 1 2 1 3 1 2 1 4 2 2 3 10 17
17 17 17 18 16 14 12 11 9 6 6 6 4 3 6 3 3 3 9 9 8 6 7 4 3 3 4 4 3 1 4 2 2 2 2 3 3 0 1 0 5 4 7 9 9
17 17 17 17 15 14 12 11 8 6 5 3 1 7 5 2 2 4 9 9 6 4 3 7 5 4 3 3 2 3 2 1 1 1 3 4 4 4 4 6 1 3 6 4 6
16 16 16 17 15 15 12 10 7 5 3 4 7 7 2 4 2 5 7 7 6 8 9 3 5 2 4 3 2 2 1 2 3 6 4 1 5 4 6 9 5 5 6 1 5
16 16 16 16 14 14 10 8 5 4 7 7 4 4 1 3 2 4 6 6 6 5 6 6 3 2 4 3 3 1 2 5 3 2 2 2 2 2 4 2 2 5 7 2 1
17 18 17 16 12 13 8 5 3 5 5 5 4 5 5 4 3 3 6 7 7 3 3 3 2 3 2 3 0 1 4 4 2 2 1 3 4 6 3 2 5 6 5 5 3
17 18 17 16 12 13 7 2 4 4 2 3 2 3 3 1 2 2 1 5 7 7 8 5 7 5 3 2 5 3 4 2 1 5 1 5 7 5 2 3 9 8 6 7 5
18 18 17 17 12 14 5 1 4 3 1 2 0 4 2 1 0 2 1 2 3 5 6 5 4 3 4 4 4 6 1 2 7 0 2 3 7 8 4 5 10 9 7 7 6
17 18 18 18 12 13 2 4 1 2 1 2 3 3 1 2 1 1 2 2 3 2 3 5 5 3 3 3 2 2 1 2 4 2 1 6 16 14 8 5 10 9 8 5 5
15 17 18 18 10 10 2 3 3 3 6 1 1 2 2 2 2 2 2 2 2 5 3 3 4 1 3 4 2 3 2 3 5 6 3 6 12 17 9 6 8 7 3 5 5
14 16 18 16 7 8 2 4 1 1 3 0 2 2 1 3 2 1 1 2 2 1 1 4 1 3 2 3 2 1 2 5 5 2 3 5 17 14 3 3 1 4 5 6 4
13 14 17 14 4 3 7 6 3 2 4 2 2 2 2 3 2 2 4 2 2 1 1 3 1 2 2 3 2 2 3 3 5 5 2 7 5 4 3 4 5 5 5 4 5
15 13 14 10 3 0 1 3 4 2 4 3 2 1 2 1 2 1 2 2 1 2 2 3 3 1 2 2 5 3 2 2 3 5 3 5 5 4 1 3 3 3 4 5 1
13 13 11 5 2 1 1 4 6 1 3 3 2 2 2 3 3 2 3 3 1 2 3 1 1 1 1 3 4 5 2 2 1 3 4 1 3 7 1 1 0 3 4 1 5
13 11 9 2 2 2 3 7 2 5 5 4 3 4 3 1 2 2 2 4 1 1 1 4 3 1 3 3 1 2 2 5 4 3 3 3 3 5 3 4 3 2 4 5 7
14 10 7 3 1 6 7 2 4 4 2 5 5 4 2 4 3 4 2 1 2 3 3 4 2 2 1 1 2 5 5 4 5 4 4 0 2 8 4 4 6 6 1 5 7
14 10 6 4 6 9 4 4 3 4 6 2 4 4 5 5 1 3 3 2 1 4 2 3 4 0 2 1 2 2 3 4 4 2 4 1 6 5 6 4 5 5 3 5 8
15 10 5 9 9 10 4 2 7 7 7 10 3 4 4 3 4 2 5 4 5 6 6 3 3 3 3 2 3 2 1 0 4 3 3 4 7 9 7 4 4 1 6 9 9
13 5 5 14 12 7 4 6 4 3 5 3 8 4 7 7 6 4 5 3 5 3 3 5 3 1 3 1 4 2 6 3 3 1 5 4 6 6 3 8 4 7 8 9 12
9 2 7 15 13 3 4 7 5 2 3 5 6 5 5 7 7 5 6 2 4 3 4 4 4 3 1 3 5 1 2 5 4 3 4 3 6 6 5 7 5 7 7 10 11
6 3 14 17 2 2 4 6 3 4 2 1 3 3 7 7 5 4 7 3 6 7 5 1 4 2 6 1 2 1 5 4 4 5 3 1 7 3 6 7 3 7 7 8 11
3 3 7 5 5 5 4 3 5 5 5 5 3 1 1 6 2 4 5 2 7 6 7 6 1 3 4 5 4 2 3 4 4 3 7 3 6 3 4 6 10 10 11 13 12
4 4 2 3 2 5 6 5 6 3 5 4 4 4 4 2 2 5 5 2 6 5 8 8 3 7 6 6 4 1 3 5 6 4 4 13 20 17 15 18 12 15 12 10 10
3 4 5 6 8 7 4 6 8 7 2 4 2 4 7 3 3 5 3 2 2 2 5 4 4 4 6 5 5 7 9 9 11 14 11 21 17 24 17 15 16 12 7 8 8
6 4 2 2 1 18 9 9 12 5 8 6 5 10 7 7 8 8 7 4 5 4 4 3 2 3 4 9 9 14 19 16 17 18 19 25 26 27 20 7 6 8 7 8 9
7 3 6 6 4 8 7 8 11 11 5 4 11 7 7 9 5 2 5 5 7 8 5 5 4 1 4 4 6 10 11 15 6 6 7 10 13 6 7 6 7 7 8 10 10
Wind_Direction
351 347 345 343 341 338 338 337 331 340 336 333 321 298 314 84 110 103 57 352 342 329 337 356 19 59 72 67 51 109 66 181 221 165 153 354 25 357 310 239 322 218 180 258 327
347 343 341 340 340 338 337 335 330 313 294 293 287 307 187 119 99 58 25 22 6 359 46 46 13 17 51 40 26 82 119 203 137 123 144 278 142 259 131 332 206 258 269 316 346
346 343 342 339 337 336 335 335 332 326 324 308 289 167 142 96 56 26 6 8 14 38 74 70 63 57 65 45 7 117 168 168 174 124 346 296 299 78 148 14 219 286 316 328 3
343 342 340 338 338 339 341 347 343 336 335 18 30 149 152 342 110 9 355 1 30 28 72 38 30 56 79 91 357 99 114 123 221 96 335 295 303 311 185 229 16 334 283 330 10
338 337 340 343 344 345 344 349 348 345 32 58 121 136 123 48 52 359 15 27 36 63 59 69 56 79 109 98 76 85 336 307 288 299 243 280 257 250 261 263 339 331 343 25 354
335 339 347 349 348 348 346 355 3 55 99 103 116 142 97 70 8 8 13 37 49 69 51 48 107 116 101 81 88 166 287 281 294 289 228 221 275 119 290 80 25 341 319 191 242
340 343 348 349 345 350 341 355 55 110 93 77 99 122 67 165 12 51 52 51 44 93 89 57 77 73 116 102 34 105 350 319 218 353 36 165 274 226 247 320 294 298 290 232 279
338 341 344 345 342 349 337 337 133 137 80 33 100 107 103 68 27 35 115 66 64 80 84 74 90 97 65 114 25 53 57 40 308 347 79 77 270 282 240 258 270 287 276 234 244
334 338 340 344 339 345 330 196 158 166 341 358 21 90 136 171 153 7 59 90 56 57 59 77 66 78 33 83 30 15 132 13 320 74 325 65 275 268 290 289 280 275 258 239 221
328 333 336 340 337 348 55 156 127 203 225 68 65 43 316 182 104 89 57 74 70 51 30 47 51 70 39 72 210 182 43 265 256 268 53 285 268 267 277 280 275 280 266 222 198
319 329 333 337 333 355 135 141 24 353 43 155 198 99 121 129 118 72 43 61 42 48 51 9 65 189 225 196 121 131 157 251 255 271 282 254 279 287 281 258 287 290 296 180 193
310 324 330 334 324 353 124 93 125 162 116 221 128 84 139 166 105 306 95 107 57 77 60 18 245 205 148 138 150 173 263 271 290 260 287 294 286 292 295 221 288 252 174 182 161
302 319 329 333 309 345 87 125 121 135 108 215 211 165 212 149 166 200 134 127 114 113 168 171 194 115 163 164 182 247 207 227 238 323 275 307 300 342 336 15 63 62 156 166 171
289 309 328 338 268 100 68 145 151 120 77 203 242 190 98 77 45 87 124 122 73 190 180 229 283 206 133 208 150 287 192 216 278 9 279 54 283 304 359 30 88 104 138 175 212
274 295 320 339 275 208 146 143 144 103 12 163 177 152 107 113 149 16 26 39 213 178 94 275 154 129 175 227 167 227 342 315 329 196 5 19 84 269 312 164 334 204 202 265 279
260 278 303 280 246 199 149 138 129 48 258 189 142 176 129 104 129 104 56 45 45 77 32 265 309 255 217 48 64 358 35 47 57 82 15 248 137 271 207 176 144 114 197 270 292
252 251 278 257 211 164 149 69 36 140 38 189 186 170 165 162 159 158 157 263 164 36 3 334 301 293 168 127 25 48 47 341 352 7 218 325 308 255 249 182 153 154 123 329 305
248 229 245 226 165 153 141 55 120 194 197 155 137 127 174 162 131 142 129 249 159 113 94 105 317 135 356 145 148 58 130 149 240 270 284 309 234 248 221 177 156 116 49 304 287
240 214 205 200 174 163 88 88 213 202 164 150 68 149 199 172 139 148 196 199 196 172 165 121 268 320 48 10 111 155 36 220 92 37 24 254 288 284 193 169 164 325 290 276 285
210 189 206 177 167 134 90 239 231 171 119 128 171 167 173 184 158 161 188 190 173 173 128 179 356 81 300 124 32 161 148 67 13 355 279 270 281 250 169 217 246 314 297 290 332
193 166 160 164 148 69 186 223 225 210 135 157 187 145 176 173 163 186 186 173 169 130 102 134 110 281 3 190 182 126 149 52 115 142 201 285 254 221 223 160 183 268 323 325 301
177 187 164 159 124 202 191 195 165 158 105 108 119 109 166 164 148 191 200 234 167 153 143 80 132 219 226 41 6 118 189 143 127 262 236 203 271 333 164 163 43 331 289 286 296
191 134 173 192 191 208 239 243 180 145 177 165 149 126 160 163 119 181 178 169 159 150 161 183 67 354 354 2 1 208 186 123 104 93 204 142 259 178 201 271 331 328 328 319 314
144 168 155 200 249 168 168 208 185 190 148 140 129 103 100 139 44 177 198 208 179 178 164 131 162 180 199 197 139 178 234 198 157 173 240 234 267 274 279 296 314 314 315 308 306
160 209 180 194 216 203 179 170 157 171 161 144 103 194 161 123 124 192 175 135 119 226 131 119 208 194 264 239 189 216 226 206 204 235 246 270 272 277 281 297 302 305 292 300 301
156 162 135 185 153 189 197 208 179 161 151 198 186 181 173 156 187 183 141 190 189 45 111 339 273 168 274 251 245 258 253 240 234 245 257 261 271 273 285 288 279 274 281 288 286
139 133 130 176 161 174 207 192 190 137 246 186 170 128 181 214 142 81 126 137 157 147 149 140 151 66 266 347 328 280 252 226 205 213 210 236 249 283 281 280 264 275 274 268 273